Regional Weather Roundup
Issued by NWS

Home | Current Version | Previous Version | Text Only | Print | Product List | Glossary Off
Versions: 1 2 3 4 5 6 7 8 9 10 11 12 13 14 15 16 17 18 19 20 21 22 23 24 25 26 27 28 29 30 31 32 33 34 35 36 37 38 39 40 41 42 43 44 45 46 47 48 49 50

000
ASUS45 KABQ 162310
RWRNM
NEW MEXICO REGIONAL WEATHER ROUNDUP
NATIONAL WEATHER SERVICE ALBUQUERQUE NM
400 PM MST TUE JAN 16 2018

NOTE: "FAIR" MEANS FEW OR NO CLOUDS BELOW 12,000 FEET AGL WITH NO
       SIGNIFICANT WEATHER OR OBSTRUCTIONS TO VISION.

      THIS PRODUCT IS RELEASED AS TWO VERSIONS.  ONE VERSION NEAR
      THE TOP OF THE HOUR CONTAINING PRELIMINARY DATA FROM ALBUQUERQUE
      AND OTHER STATIONS.  A FINAL VERSION WITH ADDITIONAL DATA IS
      ISSUED ABOUT 10 MINUTES AFTER THE HOUR.

NMZ501-503-504-510>518-170000-
NORTHWEST PLATEAU/NORTHCENTRAL MOUNTAINS

CITY           SKY/WX    TMP DP  RH WIND       PRES   REMARKS
FARMINGTON     FAIR      43  21  41 E6        30.30F
LOS ALAMOS     FAIR      28  16  59 E5        30.35S WCI  23
SANTA FE       FAIR      32  16  51 CALM      30.35F
TAOS           FAIR      32  15  49 CALM      30.36S
ANGEL FIRE     FAIR      31  12  44 W8        30.28S WCI  24

$$
NMZ402-403-502-505>509-170000-
WESTCENTRAL MOUNTAINS/SOUTHWEST MOUNTAINS

CITY           SKY/WX    TMP DP  RH WIND       PRES   REMARKS
GALLUP         FAIR      47  20  34 N12       30.28S
GRANTS         FAIR      36  16  43 S9G17     30.35S WCI  29
SILVER CITY    FAIR      39  12  34 SE12      30.36S WCI  31

$$
NMZ407-409-411-412-170000-
SOUTHERN DESERTS

CITY           SKY/WX    TMP DP  RH WIND       PRES   REMARKS
DEMING         FAIR      40   9  28 E12       30.39F WCI  33
LAS CRUCES     FAIR      40   6  24 SE7       30.41F
HOLLOMAN AFB   FAIR      41   7  24 S3        30.45S
ALAMOGORDO     FAIR      39   5  24 SW6       30.43F WCI  35
T OR C         FAIR      42  16  34 SW5       30.37F

$$
NMZ519>523-170000-
CENTRAL VALLEYS/CENTRAL HIGHLANDS

CITY           SKY/WX    TMP DP  RH WIND       PRES   REMARKS
ALBUQUERQUE    FAIR      35  19  52 CALM      30.39F
DOUBLE EAGLE   MOSUNNY   34  18  51 CALM      30.38F
MORIARTY ARPT  FAIR      36  12  37 SE5       30.37F WCI  32
CLINES CORNERS FAIR      31  11  43 SW7       30.34S WCI  24
BELEN          FAIR      37  16  41 CALM      30.39S
SOCORRO        FAIR      40  15  36 SE6       30.39S

$$
NMZ524>526-539-540-170000-
SOUTHCENTRAL MOUNTAINS

CITY           SKY/WX    TMP DP  RH WIND       PRES   REMARKS
RUIDOSO        FAIR      32   5  32 E6        30.37S WCI  26

$$
NMZ527>531-170000-
NORTHEAST HIGHLANDS/NORTHEAST PLAINS

CITY           SKY/WX    TMP DP  RH WIND       PRES   REMARKS
LAS VEGAS      PTSUNNY   23  19  85 S13       30.34F WCI  11
RATON          FAIR      29  13  51 S9        30.34S WCI  20
CLAYTON        FAIR      31  13  47 S9        30.39F WCI  23

$$
NMZ532>537-170000-
EASTCENTRAL PLAINS

CITY           SKY/WX    TMP DP  RH WIND       PRES   REMARKS
SANTA ROSA     FAIR      35   8  33 S6        30.41F WCI  29
TUCUMCARI      FAIR      38  12  34 S5        30.43F WCI  34
CANNON AFB     FAIR      31   8  37 S3        30.48F
CLOVIS AIRPORT FAIR      32   7  35 SW6       30.49F WCI  26

$$
NMZ028-029-538-170000-
SOUTHEAST PLAINS

CITY           SKY/WX    TMP DP  RH WIND       PRES   REMARKS
ROSWELL        FAIR      35   4  27 S10       30.49F WCI  27
ARTESIA        FAIR      34   1  25 SE14      30.51F WCI  24
CARLSBAD       CLOUDY    30   3  31 S8        30.53F WCI  22
HOBBS          SUNNY     30   0  27 CALM      30.52F


$$




USA.gov is the U.S. government's official web portal to all federal, state and local government web resources and services.